Погода в Красноуральске

Россия / Оренбургская область     51°21′02″N   56°53′04″E
темп.,
°C
ветер,
м/с
пор.,
м/с
влажн.,
%
обл.,
%
осадки,
мм/ч
давл.,
гПа
погр.,
м
22 октября, пт
пт2223:00+1юз91795100 1.7 1015795
02:00+1юз101896100 5.6 1013918
05:00+4зюз91773100 6.3 1012677
08:00+4зюз81592100 0.3 1012536
11:00+5юз81574100 0.9 1014467
14:00+10зюз91554100 0.0 1014719
17:00+11зюз91748100 0.0 1014740
20:00+10юз91947100 0.0 1014667
23 октября, сб
сб2323:00+9юз919495 0.0 1015619
02:00+9юз817550 0.0 1016507
05:00+8юз817702 0.0 1016414
08:00+7юз715764 0.0 1017379
11:00+11юз9146316 0.0 1018560
14:00+14зюз81253100 0.0 1018975
17:00+14зюз71353100 0.0 1018810
20:00+12юз51361100 0.0 1019341
24 октября, вс
вс2423:00+11юз4965100 0.0 1020177
02:00+11ююз51174100 0.0 1019273
05:00+10ююз61390100 0.0 1018373
08:00+9ююз71559100 0.0 1017438
11:00+12ююз81534100 0.0 1016655
14:00+15юз91423100 0.0 1015958
17:00+14юз71325100 0.0 1014772
20:00+12ююз61430100 0.0 1014348
25 октября, пн
пн2523:00+11юз51233100 0.0 1014294
02:00+9юз3541100 0.0 1013119
05:00+8зюз1152100 0.0 101311
08:00+8юв1154100 0.3 101222
11:00+10юз2440100 0.4 1012385
14:00+9зсз2252100 0.0 1011463
17:00+8ссз4685100 0.3 1011515
20:00+6ссз5785100 1.5 1012575
26 октября, вт
вт2623:00+6ссз4787100 3.4 1012737
02:00+5с5886100 0.6 1013692
05:00+4ссз5108023 0.6 1014618
08:00+3с611795 0.0 1016559
11:00+5ссв795820 0.0 1018995
14:00+6св784457 0.0 10191404
17:00+5св67320 0.0 10201296
20:00+2св48430 0.0 1023300